Regional Weather Roundup
Issued by NWS

Home | Current Version | Previous Version | Text Only | Print | Product List | Glossary Off
Versions: 1 2 3 4 5 6 7 8 9 10 11 12 13 14 15 16 17 18 19 20 21 22 23 24 25 26 27 28 29 30 31 32 33 34 35 36 37 38 39 40 41 42 43 44 45 46 47 48 49 50

000
ASUS43 KMKX 250220
RWRWI

WISCONSIN REGIONAL WEATHER ROUNDUP
NATIONAL WEATHER SERVICE MILWAUKEE/SULLIVAN WI
900 PM CDT TUE APR 24 2018

NOTE: "FAIR" INDICATES FEW OR NO CLOUDS BELOW 12,000 FEET WITH NO
SIGNIFICANT WEATHER AND/OR OBSTRUCTIONS TO VISIBILITY.

WIZ001-002-006>008-014>016-023>028-250300-
NORTHWEST WISCONSIN

CITY           SKY/WX    TMP DP  RH WIND       PRES   REMARKS
SUPERIOR ARPT  FAIR      45  25  44 N7G16     30.24R
ASHLAND        FAIR      37  31  78 N8        30.22R WCI  31
HAYWARD        FAIR      48  27  44 N7        30.18R
SIREN          FAIR      49  24  37 N5        30.20R
CUMBERLAND     FAIR      41  30  65 W3        30.19R
RICE LAKE      FAIR      42  34  73 CALM      30.19S
CHETEK         FAIR      41  34  75 CALM      30.19R
LADYSMITH      FAIR      38  33  80 CALM      30.20R
EAU CLAIRE     FAIR      48  36  63 NE3       30.18R
MENOMONIE      FAIR      47  35  62 N3        30.19R
NEW RICHMOND   FAIR      47  30  53 N3        30.19S
OSCEOLA        FAIR      49  32  51 NW5       30.22R
$$

WIZ003>005-009-010-017-018-250300-
NORTH CENTRAL WISCONSIN

CITY           SKY/WX    TMP DP  RH WIND       PRES   REMARKS
MANITOWISH WTR FOG       32  32 100 CALM      30.17R VSB<1/4
ARBOR VITAE    FOG       37  35  94 CALM      30.17R VSB 1/4
WOODRUFF       FOG       37  35  94 CALM      30.17R VSB 1/4
RHINELANDER    CLOUDY    39  38  96 NE3       30.17R
EAGLE RIVER    FOG       35  35 100 CALM      30.17R VSB 1/2
LAND O LAKES   FAIR      31  31  99 CALM      30.19R
PHILLIPS       FAIR      33  33  99 CALM      30.17R
TOMAHAWK       CLOUDY    39  36  90 N3        30.18R
MEDFORD        CLOUDY    40  37  87 N8        30.16R
MERRILL        LGT RAIN  41  40  95 N5        30.17S
$$

WIZ029-030-035-036-043>047-250300-
CENTRAL WISCONSIN

CITY           SKY/WX    TMP DP  RH WIND       PRES   REMARKS
WAUSAU         LGT RAIN  45  36  70 N14G24    30.12R
MOSINEE        DRIZZLE   46  30  53 N17G23    30.14R
MARSHFIELD     CLOUDY    48  32  53 NE10G20   30.12R
STEVENS POINT  DRIZZLE   48  30  49 N17G25    30.13R
WAUPACA        CLOUDY    54  32  43 N8        30.12R
WAUTOMA        CLOUDY    57  32  38 NE15G22   30.07R
WISC RAPIDS    CLOUDY    52  29  41 N16G22    30.12R
CAMP DOUGLAS   CLOUDY    55  34  44 N18G29    30.09R
$$

WIZ011>013-019>022-031-037>040-048>050-250300-
NORTHEAST WISCONSIN

CITY           SKY/WX    TMP DP  RH WIND       PRES   REMARKS
ANTIGO         CLOUDY    40  36  87 N17G23    30.15R WCI  31
SHAWANO        CLOUDY    49  33  54 NE8       30.12R
OCONTO         CLOUDY    49  27  42 NE9G17    30.12R
STURGEON BAY   CLOUDY    46  28  49 N13G22    30.12R
GREEN BAY      CLOUDY    47  32  56 NE22G31   30.10R
MANITOWOC      MOCLDY    48  31  51 N13G20    30.09R
APPLETON       MOCLDY    52  25  35 NE15G23   30.07R
CLINTONVILLE   CLOUDY    51  33  50 CALM      30.11R
OSHKOSH        CLOUDY    51  37  58 E10       30.06R
$$

WIZ032>034-041-042-053>061-250300-
SOUTHWEST WISCONSIN

CITY           SKY/WX    TMP DP  RH WIND       PRES   REMARKS
LA CROSSE      FAIR      58  33  39 N18G29    30.11R
SPARTA         CLOUDY    56  33  41 N14G23    30.12R
VIROQUA        FAIR      55  36  48 N16G25    30.10R
BOSCOBEL       CLOUDY    66  38  35 N8        30.04R
PRAIRIE DU CHI MOCLDY    63  35  34 NW7       30.04R
PLATTEVILLE    CLOUDY    63  40  42 N10       30.02S
$$

WIZ056-057-062-063-064-067-068-250300-
SOUTH CENTRAL WISCONSIN

CITY           SKY/WX    TMP DP  RH WIND       PRES   REMARKS
REEDSBURG      CLOUDY    61  36  38 N24G31    30.04R
BARABOO/DELLS  CLOUDY    62  35  36 N9G20     30.03R
LONE ROCK      CLOUDY    65  39  38 N12       30.02R
MINERAL POINT  CLOUDY    64  36  34 N8        30.03R
MADISON        CLOUDY    60  32  34 N6        30.01R
MIDDLETON      CLOUDY    58  41  53 N7        30.03R
WATERTOWN      CLOUDY    55  49  79 E6        30.01R
MONROE         CLOUDY    61  28  29 NE5       30.00S
JANESVILLE     MOCLDY    59  37  44 E5        30.01R
$$

WIZ051-052-058>065-066-070>072-250300-
SOUTHEAST WISCONSIN

CITY           SKY/WX    TMP DP  RH WIND       PRES   REMARKS
MILWAUKEE      FAIR      46  44  93 N8        30.04R
WAUKESHA       CLEAR     50  45  81 E6        30.03S
MILWAUKEE/TIMM CLEAR     50  45  81 NE8       30.05R
RACINE         MOCLDY    44  43  96 NE12      30.06R FOG
BURLINGTON     FAIR      52  46  81 E7        30.03R
KENOSHA        FAIR      49  44  83 N6        30.03R
FOND DU LAC    MOCLDY    54  41  61 NE21G28   30.06R
SHEBOYGAN      MOCLDY    46  34  62 NE16      30.07R
WEST BEND      MOCLDY    50  45  81 NE18G24   30.05R
JUNEAU         CLOUDY    56  47  72 CALM      30.04R
$$

LSZ147-162-250300-
LAKE SUPERIOR

STATION/POSITION TIME  TEMP    WIND        PRES    WAVE
                       AIR SEA DIR/SP/G            HT/PER
                 (UTC) (F)     (DEG/KT/KT) (MB)    (FT/S)
DEVILS ISLAND    0200   40      10/ 14/ 15 1024.7R
SAXON HARBOR     0140   36     190/  1/  2 1022.4R
$$

LMZ867-665-643>646-250300-
LAKE MICHIGAN

STATION/POSITION TIME  TEMP    WIND        PRES    WAVE
                       AIR SEA DIR/SP/G            HT/PER
                 (UTC) (F)     (DEG/KT/KT) (MB)    (FT/S)
NORTHPORT PIER   0140   39                 1019.6R
KEWAUNEE LAKESHO 0154   44      20/  9/ 12 1018.7R
SHEBOYGAN LAKESH 0200   42      10/ 15/ 16 1018.7R
PORT WASHINGTON  0140   46      30/  8/ 11 1018.3S
MILWAUKEE LAKESH 0200   45      20/ 11/ 13   N/A
KENOSHA   LAKESH 0200   44                 1016.9
$$

TC  - TEMPERATURE IN CELSIUS
VSB - VISIBILITY IN STATUTE MILES
WCI - WIND CHILL INDEX
HX  - HEAT INDEX




USA.gov is the U.S. government's official web portal to all federal, state and local government web resources and services.